#timestamp,LO_Frequency,Hit 
1501992015.4,286047003.3,N
1501992035.3,286046998.6,N
1501992055.1,286047000.0,N
1501992056.0,286047000.0,N
1501992075.8,286047001.6,N
1501992095.6,286047000.5,N
1501992115.5,286047000.6,N
1501992135.3,286046997.8,N
1501992155.1,286046994.4,N
1501992175.9,286046991.7,N
1501992195.7,286046994.1,N
1501992215.5,286046996.1,N
1501992235.4,286047000.9,N
1501992255.2,286046996.8,N
1501992275.0,286046996.4,N
1501992275.9,286046996.4,N
1501992295.8,286046996.1,N
1501992315.6,286046998.2,N
1501992335.4,286047005.7,N
1501992355.3,286047005.0,N
1501992375.1,286047009.1,N
1501992376.0,286047009.1,N
1501992395.8,286047006.0,N
1501992415.7,286047001.3,N
1501992435.5,286046998.3,N
1501992455.3,286046999.4,N
1501992475.1,286046997.0,N
1501992495.9,286046997.4,N
1501992515.7,286046995.1,N
1501992535.5,286047000.8,N
1501992555.4,286047001.6,N
1501992575.2,286047003.9,N
1501992595.0,286047003.0,N
1501992595.9,286047003.0,N
1501992615.8,286047002.4,N
1501992635.6,286047000.4,N
1501992655.4,286047000.6,N
1501992675.3,286046999.9,N
1501992695.1,286047001.9,N
1501992715.8,286047002.2,N
1501992735.7,286047004.0,N
1501992755.5,286047003.5,N
1501992775.3,286047002.9,N
1501992795.2,286047003.9,N
1501992815.9,286047002.1,N
1501992835.7,286046999.4,N
1501992855.6,286047000.2,N
1501992875.4,286047003.3,N
1501992895.2,286047005.2,N
1501992915.0,286047006.5,N
1501992915.9,286047006.5,N
1501992935.8,286047005.7,N
1501992955.6,286047003.5,N
1501992975.4,286047003.5,N
1501992995.3,286047002.6,N
1501993015.1,286047005.5,N
1501993035.8,286047005.8,N
1501993055.7,286047007.3,N
1501993075.5,286047005.7,N
1501993095.3,286047005.5,N
1501993115.2,286047006.0,N
1501993135.9,286047006.4,P
1501993155.7,286047002.6,N
1501993175.6,286047004.1,N
1501993195.4,286047005.8,P
1501993215.2,286047001.7,N
1501993235.1,286047000.2,N
1501993236.0,286047000.2,N
1501993255.8,286047000.5,N
1501993275.6,286046999.5,N
1501993295.5,286047000.9,N
1501993315.3,286046999.8,N
1501993335.1,286047002.3,N
1501993355.9,286047005.7,N
1501993375.7,286047000.0,N
1501993395.5,286047000.7,N
1501993415.4,286047000.4,N
1501993435.2,286047002.4,N
1501993455.0,286046996.4,N
1501993455.9,286046996.4,N
1501993475.8,286046995.1,N
1501993495.6,286046998.3,N
1501993515.4,286047006.0,N
1501993535.3,286047001.9,N
1501993555.1,286047000.2,N
1501993556.0,286047000.2,N
1501993575.8,286047001.2,N
1501993595.6,286046997.0,N
1501993615.5,286046996.0,N
1501993635.3,286046995.0,N
1501993655.1,286046999.2,N
1501993675.9,286046994.9,N
1501993695.7,286046997.1,N
1501993715.5,286047000.2,N
1501993735.4,286047000.4,N
1501993755.2,286047001.1,N
1501993775.0,286046999.1,N
1501993775.9,286046999.1,N
1501993795.8,286046996.5,N
1501993815.6,286047001.6,N
1501993835.4,286047004.2,N
1501993855.3,286047002.7,N
1501993875.1,286047000.5,N
1501993876.0,286047000.5,N
1501993895.8,286047004.8,N
1501993915.7,286047005.5,N
1501993935.5,286047004.7,N
1501993955.3,286047005.2,N
1501993975.1,286047005.6,N
1501993995.9,286047001.7,N
1501994015.7,286047002.1,N
1501994035.5,286047002.3,N
1501994055.4,286047000.5,N
1501994075.2,286047001.1,N
1501994095.0,286047002.3,N
1501994095.9,286047002.3,N
1501994115.8,286047004.1,N
1501994135.6,286047000.2,N
1501994155.4,286047003.9,N
1501994175.3,286047004.0,N
1501994195.1,286047000.6,N
1501994196.0,286047000.6,N
1501994215.8,286047003.7,N
1501994235.7,286047001.6,N
1501994255.5,286047003.7,N
1501994275.3,286047005.5,N
1501994295.2,286047003.0,N
1501994315.9,286047003.5,N
1501994335.7,286047004.6,N
1501994355.6,286047001.0,N
1501994375.4,286046999.8,N
1501994395.2,286047002.3,N
1501994415.1,286047006.9,P
1501994416.0,286047006.9,P
1501994435.8,286047005.7,N
1501994455.6,286047006.8,P
1501994475.5,286047000.3,N
1501994495.3,286046996.0,N
1501994515.1,286046992.4,N
1501994535.9,286046992.9,N
1501994555.7,286046994.8,N
1501994575.5,286046990.6,N
1501994595.4,286046992.0,N
1501994615.2,286046990.0,N
1501994635.0,286046991.7,N
1501994635.9,286046991.7,N
1501994655.8,286046991.8,N
1501994675.6,286046994.4,N
1501994695.4,286046990.8,N
1501994715.2,286046993.1,N
1501994735.1,286046992.2,N
1501994736.0,286046992.2,N
1501994755.8,286046995.9,N
1501994775.6,286046993.9,N
1501994795.5,286046991.9,N
1501994815.3,286046994.3,N
1501994835.1,286046995.2,N
1501994855.9,286046998.5,N
1501994875.7,286046998.3,N
1501994895.5,286046999.4,N
1501994915.4,286046999.9,N
1501994935.2,286046996.6,N
1501994955.0,286046998.8,N
1501994955.9,286046998.8,N
1501994975.8,286047003.4,N
1501994995.6,286047000.9,N
1501995015.4,286047000.0,N
1501995035.2,286047000.7,N
1501995055.1,286046997.0,N
1501995056.0,286046997.0,N
1501995075.8,286046997.6,N
1501995095.6,286046992.4,N
1501995115.5,286046993.0,N
1501995135.3,286046995.7,N
1501995155.1,286046998.0,N
1501995175.9,286046995.7,N
1501995195.7,286046993.9,N
1501995215.5,286046992.2,N
1501995235.4,286046992.5,N
1501995255.2,286046988.6,P
1501995275.0,286047001.0,N
1501995275.9,286047001.0,N
1501995295.8,286046998.5,N
1501995315.6,286047000.5,N
1501995335.4,286046997.1,N
1501995355.3,286046996.0,N
1501995375.1,286046996.8,N
1501995376.0,286046996.8,N
1501995395.8,286046998.4,N
1501995415.7,286046997.1,N
1501995435.5,286046993.7,N
1501995455.3,286046994.5,N
1501995475.2,286046999.5,N
1501995495.9,286046996.5,N
1501995515.7,286046998.8,N
1501995535.5,286047001.8,N
1501995555.4,286047000.4,N
1501995575.2,286047004.1,N
1501995595.0,286047001.3,N
1501995595.9,286047001.3,N
